Hondo, TX

7:27 AM CST on December 08, 2019 (GMT -0600)
Hondo Municipal

Weather History for KHDO - October, 2019

Change the Weather History Date:

Monday, October 28, 2019

  Actual Average Record
Temperature  
Mean Temperature 69 °F -  
Max Temperature 84 °F 76 °F 88 °F (1996)
Min Temperature 54 °F 55 °F 32 °F (2008)
Cooling Degree Days 4    
Growing Degree Days 19 (Base 50)    
Moisture  
Dew Point 59 °F    
Average Humidity 70    
Maximum Humidity 87    
Minimum Humidity 47    
Precipitation  
Precipitation 0.00 in - - ()
Sea Level Pressure  
Sea Level Pressure 29.89 in    
Wind  
Wind Speed 7 mph (ESE)    
Max Wind Speed 15 mph    
Max Gust Speed 18 mph    
Visibility 10 miles    
Events      
Averages and records for this station are not official NWS values.
T = Trace of Precipitation, MM = Missing Value Source: NWS Daily Summary

Daily Weather History Graph

Daily Weather History Graph

Search for Another Location

Airport or City:

Astronomy

Oct. 28, 2019 Rise Set
Actual Time 7:46 AM CDT 6:53 PM CDT
Civil Twilight 7:22 AM CDT 7:18 PM CDT
Nautical Twilight 6:54 AM CDT 7:46 PM CDT
Astronomical Twilight 6:26 AM CDT 8:13 PM CDT
Moon 8:11 AM CDT (10/28) 7:41 PM CDT (10/28)
Length of Visible Light 11h 55m
Length of Day
11h 07m
New Moon, 0% of the Moon is Illuminated
Oct 28
New Moon
Nov 4
First Quarter
Nov 12
Full
Nov 19
Last Quarter
Nov 26
New

Hourly Weather History & Observations

Time (CDT) Temp. Heat Index Dew Point Humidity Pressure Visibility Wind Dir Wind Speed Gust Speed Precip Events Conditions
12:51 AM 61.0 °F - 51.1 °F 70% 29.92 in 10.0 mi East 3.5 mph - N/A   Clear
1:51 AM 55.0 °F - 48.9 °F 80% 29.92 in 10.0 mi ENE 4.6 mph - N/A   Clear
2:51 AM 54.0 °F - 48.9 °F 83% 29.92 in 10.0 mi ENE 4.6 mph - N/A   Clear
3:51 AM 54.0 °F - 50.0 °F 86% 29.90 in 10.0 mi ENE 5.8 mph - N/A   Clear
4:51 AM 55.9 °F - 52.0 °F 87% 29.90 in 10.0 mi ENE 4.6 mph - N/A   Mostly Cloudy
5:51 AM 55.9 °F - 52.0 °F 87% 29.91 in 10.0 mi NE 5.8 mph - N/A   Overcast
6:51 AM 59.0 °F - 55.0 °F 87% 29.91 in 10.0 mi NE 4.6 mph - N/A   Overcast
7:51 AM 61.0 °F - 55.9 °F 83% 29.92 in 10.0 mi ENE 5.8 mph - N/A   Overcast
8:51 AM 63.0 °F - 57.9 °F 84% 29.93 in 10.0 mi East 6.9 mph - N/A   Overcast
9:51 AM 66.9 °F - 61.0 °F 81% 29.95 in 10.0 mi SE 9.2 mph - N/A   Overcast
11:51 AM 73.0 °F - 63.0 °F 71% 29.93 in 10.0 mi SE 10.4 mph - N/A   Overcast
12:51 PM 77.0 °F - 63.0 °F 62% 29.91 in 10.0 mi South 12.7 mph 17.3 mph N/A   Overcast
1:08 PM 78.1 °F - 63.0 °F 60% 29.93 in 10.0 mi SSE 9.2 mph - N/A   Overcast
1:23 PM 77.0 °F - 62.1 °F 60% 29.92 in 10.0 mi SE 13.8 mph 18.4 mph N/A   Overcast
1:51 PM 79.0 °F - 62.1 °F 56% 29.88 in 10.0 mi SSE 11.5 mph - N/A   Mostly Cloudy
2:51 PM 82.0 °F 83.0 °F 62.1 °F 51% 29.84 in 10.0 mi SSE 15.0 mph - N/A   Scattered Clouds
3:51 PM 84.0 °F 84.5 °F 62.1 °F 47% 29.82 in 10.0 mi SSE 12.7 mph 18.4 mph N/A   Mostly Cloudy
4:51 PM 82.9 °F 83.7 °F 62.1 °F 49% 29.82 in 10.0 mi SSE 15.0 mph - N/A   Mostly Cloudy
5:51 PM 82.0 °F 83.1 °F 63.0 °F 52% 29.82 in 10.0 mi SE 8.1 mph - N/A   Partly Cloudy
6:51 PM 79.0 °F - 63.0 °F 58% 29.83 in 10.0 mi ESE 9.2 mph - N/A   Clear
7:51 PM 75.0 °F - 64.0 °F 69% 29.84 in 10.0 mi East 6.9 mph - N/A   Partly Cloudy
8:51 PM 75.9 °F - 64.0 °F 67% 29.87 in 10.0 mi ESE 11.5 mph - N/A   Overcast
9:51 PM 75.9 °F - 64.0 °F 67% 29.88 in 10.0 mi ESE 10.4 mph - N/A   Overcast
10:51 PM 73.9 °F - 64.9 °F 73% 29.90 in 10.0 mi ESE 15.0 mph - N/A   Overcast
11:51 PM 73.0 °F - 66.0 °F 79% 29.91 in 10.0 mi SE 12.7 mph - N/A   Overcast